www.pogodaiklimat.ru

Погода и климат >> Архив погоды >> Оман >> Sohar Majis


ПОГОДА в Sohar Majis

  • Прогноз погоды в Sohar Majis
  • Монитор погоды в Sohar Majis
  • Климат города

АРХИВ ПОГОДЫ в Sohar Majis

Время (UTC), дата Ветер
(напр.,м/с)
 
Видим.   Явления Облачность Т
(С)
Тd
(С)
f
(%)
Тe
(С)
Тes
(С)
Комфортность P
(гПа)
Po
(гПа)
Тmin
(С)
Tmax
(С)
R
(мм)
R24
(мм)
S
(см)
00 12.12 ЮЗ 3 н/о н/о +19.5 +12.1 62 +21 +21 комфорт 1015.0 1014.5
06 12.12 СЗ 3 15 км ясно +24.7 +9.6 38 +25 +31 комфорт 1016.4 1016.2 +18.3
09 12.12 СВ 5 20 км 1/1 540 м
[Sc]
+25.8 +14.9 51 +29 +33 душно 1014.3 1014.1
12 12.12 СЗ 5 н/о н/о +26.8 +13.7 44 +29 +29 жарко 1013.6 1013.2
15 12.12 СВ 4 н/о н/о +25.0 +17.2 62 +29 +29 душно 1016.2 1015.7
18 12.12 СЗ 3 н/о н/о +23.9 +14.5 56 +27 +27 жарко 1017.1 1016.6 +28.1
21 12.12 С 5 10 км 4/4 900 м
[Cu Sc]
+23.6 +15.9 62 +27 +27 жарко 1016.7 1016.5
00 13.12 С 4 н/о н/о +22.5 +15.7 65 +26 +26 жарко 1017.3 1016.9
03 13.12 В 8 н/о н/о +22.8 +10.9 47 +25 +25 комфорт 1018.3 1017.8
06 13.12 ЮВ 7 н/о н/о +23.9 +10.9 44 +25 +25 комфорт 1019.9 1019.4 +21.4
09 13.12 ЮВ 7 н/о н/о +25.1 +11.3 42 +26 +26 жарко 1018.2 1017.7
12 13.12 В 7 10 км 3/1 1050 м
[Sc diur, vesp Ac trans]
+23.5 +9.5 41 +24 +25 комфорт 1016.5 1016.3
15 13.12 ЮВ 4 10 км 1/0
[Ac trans]
+22.1 +10.2 47 +24 +24 комфорт 1017.3 1017.1
18 13.12 ЮЗ 2 10 км ясно +20.4 +10.0 51 +23 +23 комфорт 1017.9 1017.7 +25.5
21 13.12 З 1 10 км ясно +20.1 +10.1 53 +23 +23 комфорт 1017.1 1016.9
00 14.12 ЮЗ 1 10 км ясно +18.5 +10.5 60 +20 +20 1016.7 1016.5
03 14.12 ЮЗ 2 н/о н/о +17.9 +10.2 61 +19 +19 1018.3 1017.8
06 14.12 Ю 2 10 км 5/3 900 м
[Sc Ac trans Ci fib]
+23.7 +11.2 45 +25 +29 комфорт 1019.8 1019.6 +17.6
12 14.12 В 6 н/о н/о +24.7 +13.2 49 +27 +27 жарко 1016.8 1016.3
18 14.12 ЮЗ 2 н/о н/о +21.0 +12.1 57 +24 +24 комфорт 1018.3 1017.8 +25.4
00 15.12 З 2 н/о н/о +20.6 +11.4 56 +23 +23 комфорт 1017.2 1016.8
06 15.12 Ю 1 10 км 5/5 900 м
[Cu Sc]
+23.8 +13.4 52 +26 +30 жарко 1020.1 1019.9 +17.9
12 15.12 В 7 н/о н/о +24.8 +15.5 56 +28 +28 жарко 1017.6 1017.1
18 15.12 ЮЗ 1 н/о н/о +21.5 +13.4 60 +24 +24 комфорт 1020.3 1019.8 +25.8
00 16.12 З 1 н/о н/о +20.8 +12.5 59 +24 +24 комфорт 1018.7 1018.2
06 16.12 В 2 н/о н/о +24.2 +14.7 55 +27 +27 жарко 1021.5 1021.0 +18.5
12 16.12 В 5 н/о н/о +23.8 +16.5 64 +27 +27 жарко 1018.1 1017.6
18 16.12 СВ 4 н/о н/о +20.5 +16.9 80 +24 +24 комфорт 1020.1 1019.6 +21.6 5
00 17.12 З 2 10 км 4/4 900 м
[Cu Sc]
+18.5 +16.1 86 +20 +20 1019.8 1019.6
06 17.12 ЮВ 12 н/о н/о +20.4 +17.6 84 +23 +23 комфорт 1021.3 1020.8 +17.8 4
12 17.12 В 2 н/о н/о +17.3 +15.8 91 +18 +18 1019.1 1018.6 16
18 17.12 штиль 0 10 км 5/5 900 м
[Cu Sc]
+18.4 +15.1 81 +19 +19 1019.6 1019.4 +21.2
00 18.12 З 1 н/о н/о +17.8 +14.9 83 +19 +19 1019.5 1019.0 16
06 18.12 С 4 10 км 4/4 900 м
[Sc diur, vesp]
+20.6 +15.6 73 +24 +27 комфорт 1022.2 1022.0 +16.7
12 18.12 СЗ 5 10 км 8/6 750 м
[Sc diur, vesp Ac trans]
+20.7 +13.6 64 +23 +23 комфорт 1019.8 1019.6
18 18.12 З 1 12 км 4/3 480 м
[Sc Ac trans]
+19.3 +13.9 71 +22 +22 комфорт 1021.6 1021.4 +23.0

 

Местоположение метеостанции Sohar Majis (Оман): широта 24.47 долгота 56.63 высота над уровнем моря 4 м.

В архиве по умолчанию представлена погода в Sohar Majis за последнюю неделю. Архивные данные за месяц целиком и за предыдущие месяцы, начиная с января 2011 года, Вы можете получить, выбрав интересующий диапазон дат из раскрывающегося списка и нажав кнопку "Ввод!".

Внимание! Время в таблицах - всемирное. Для получения местного времени необходимо прибавить поправку, которая в Sohar Majis равна 4 ч.

Смотрите также архив погоды в соседних городах и на ближайших метеорологических станциях:

Погода в Qumayra (Оман) (74 км)
Погода в Fujairah (ОАЭ) (76 км)
Погода в Buraimi (Оман) (90 км)
Погода в Suwaiq (Оман) (97 км)
Погода в Al Ain Int Airport (ОАЭ) (107 км)
Погода в Ibri (Оман) (117 км)
Погода в Diba (Оман) (134 км)
Погода в Rustaq (Оман) (144 км)
Погода в Ras Al Khaimah Int Airport (ОАЭ) (146 км)
Погода в Sharjah (ОАЭ) (147 км)

Пояснения к столбцам:

Ветер - указаны скорость ветра в м/с - средняя за 10 мин, порывы в срок и между сроками (в фигурных скобках) и направление, откуда дует ветер: С - северный, СВ - северо-восточный, В - восточный, ЮВ - юго-восточный, Ю - южный, ЮЗ - юго-западный, З - западный, СЗ - северо-западный.
Видимость - горизонтальная дальность видимости в метрах или километрах. При видимости от 1 до 10 км при отсутствии осадков обычно наблюдается дымка, при ухудшении видимости до 1 км и менее - туман. В сухую погоду видимость может ухудшаться дымом, пылью или мглою.
Явления - указаны атмосферные явления, наблюдавшиеся в срок или в последний час перед сроком; фигурными скобками обозначены явления, наблюдавшиеся между сроками (за 1-3 часа до срока); квадратными скобками обозначены град или гололедные отложения с указанием их диаметра в мм.
Облачность - указаны через наклонную черту общая и нижняя облачность в баллах и высота нижней границы облаков в метрах; квадратными скобками обозначены формы облаков: Ci - перистые, Cs - перисто-слоистые, Cc - перисто-кучевые, Ac - высококучевые, As - высокослоистые, Sc - слоисто-кучевые, Ns - слоисто-дождевые, Cu - кучевые, Cb - кучево-дождевые. Подробнее классификацию облаков см. в Атласе облаков (PDF).
T - Температура воздуха - температура, измеренная на высоте 2 м над землей.
Td - Температура точки росы - температура, при понижении до которой содержащийся в воздухе водяной пар достигнет насыщения.
f - Относительная влажность воздуха - влажноcть воздуха, измеренная на высоте 2 м над землей.
Te - Эффективная температура - температура, которую ощущает одетый по сезону человек в тени. Характеристика душности погоды. При расчете учитывается влияние влажности воздуха и скорости ветра на теплоощущения человека.
Tes - Эффективная температура на солнце - температура, которую ощущает человек, с поправкой на солнечный нагрев. Характеристика знойности погоды. Зависит от высоты солнца над горизонтом, облачности и скорости ветра. Ночью, в пасмурную погоду, а также при ветре 12 м/с и более поправка равна нулю.
P - Атмосферное давление - приведенное к уровню моря атмосферное давление.
Po - Атмосферное давление - измеренное на уровне метеостанции атмосферное давление.
Tmin - Минимальная температура - минимум температуры воздуха на высоте 2 м над землей.
Tmax - Максимальная температура - максимум температуры воздуха на высоте 2 м над землей.
R - Количество осадков - Количество выпавших осадков за период времени, мм. При наведении курсора мыши на число - период времени, за который выпало указанное количество осадков.
R24 - Количество осадков - Количество выпавших осадков за 24 часа, мм.
S - Снежный покров - Высота снежного покрова, см. При наведении курсора мыши на число - состояние снежного покрова и степень покрытия местности в баллах.